x

Northwestern Hawaii One - 170 Nm West Northwest Of Kauai Island (51001) Wave Buoy

12:50am - Wed 22nd Feb 2017 All times are HST. -10 hours from GMT.

  • Sig Wave height 7.2ft
  • Swell Direction
  • Peak Period 7s
  • Average Period 6s
  • Wind
    18mph, 25mph gusts
  • Sea Temp 72°f
  • Air Temp 70°f
  • Sea Pressure 1027.3mb
  • Northwestern Hawaii One - 170 Nm West Northwest Of Kauai Island
  • Northwestern Hawaii One - 170 Nm West Northwest Of Kauai Island

More Historic Weather Station data

Upgrade to MSW Pro to gain access to the past 30 days of data for over 8000 Wavebouys and Weather Stations around the globe.

Join Pro

Comparision Forecast

View Surf forecast
   
Wed 02/22 12:50am 7ft 7s 6s 18 25 mph 1027.3mb 72f 70f
12:40am 7ft  -  6s 20 25 mph 1027.5mb 72f 70f
12:30am  -   -   -  18 22 mph 1027.3mb 72f 70f
12:20am  -   -   -  20 25 mph 1027.3mb 72f 70f
12:10am  -   -   -  20 25 mph 1027.3mb 72f 70f
12:00am  -   -   -  20 25 mph 1027.3mb 72f 71f
Tue 02/21 11:50pm 6.5ft 7s 6s 20 25 mph 1027.3mb 72f 71f
11:40pm 6.5ft  -  6s 20 27 mph 1027.3mb 72f 71f
11:30pm  -   -   -  20 25 mph 1027.3mb 72f 71f
11:20pm  -   -   -  20 25 mph 1027.5mb 72f 71f
11:10pm  -   -   -  18 25 mph 1027.8mb 72f 71f
11:00pm  -   -   -  20 25 mph 1027.8mb 72f 71f
10:50pm 6ft 7s 6s 20 25 mph 1027.5mb 72f 71f
10:40pm 6ft  -  6s 20 22 mph 1027.5mb 72f 71f
10:30pm  -   -   -  20 25 mph 1027.5mb 72f 71f
10:20pm  -   -   -  20 25 mph 1027.5mb 72f 71f
10:10pm  -   -   -  20 25 mph 1027.5mb 72f 71f
10:00pm  -   -   -  20 25 mph 1027.3mb 72f 71f
9:50pm 6ft 7s 6s 20 22 mph 1027.5mb 72f 71f
9:40pm 6ft  -  6s 18 25 mph 1027.5mb 72f 71f
9:30pm  -   -   -  18 22 mph 1027.5mb 72f 71f
9:20pm  -   -   -  18 22 mph 1027.5mb 72f 71f
9:10pm  -   -   -  18 22 mph 1027.5mb 72f 71f
9:00pm  -   -   -  20 25 mph 1027.3mb 72f 71f
8:50pm 6ft 9s 6s 18 22 mph 1027.3mb 73f 71f
8:40pm 6ft  -  6s 18 22 mph 1027.3mb 72f 71f
8:30pm  -   -   -  18 22 mph 1027mb 72f 71f
8:20pm  -   -   -  20 25 mph 1027mb 72f 71f
8:10pm  -   -   -  18 22 mph 1026.8mb 72f 71f
8:00pm  -   -   -  18 22 mph 1026.8mb 72f 71f
7:50pm 6ft 10s 6s 18 22 mph 1026.8mb 72f 71f
7:40pm 6ft  -  6s 18 22 mph 1026.5mb 72f 71f
7:30pm  -   -   -  18 22 mph 1026.5mb 72f 71f
7:20pm  -   -   -  18 22 mph 1026.3mb 72f 71f
7:10pm  -   -   -  18 22 mph 1026.3mb - 71f
7:00pm  -   -   -  18 22 mph 1026.3mb 72f 71f
6:50pm 5.5ft 7s 6s 18 22 mph 1026.3mb 72f 71f
6:40pm 5.5ft  -  6s 18 22 mph 1026mb - 71f
6:30pm  -   -   -  16 22 mph 1026mb 72f 71f
6:20pm  -   -   -  18 22 mph 1025.8mb 72f 71f
6:10pm  -   -   -  18 22 mph 1025.8mb 72f 71f
6:00pm  -   -   -  18 20 mph 1025.8mb 72f 71f
5:50pm 5.5ft 10s 6s 18 22 mph 1025.8mb 72f 71f
5:40pm 5.5ft  -  6s 16 20 mph 1025.8mb 72f 71f
5:30pm  -   -   -  18 22 mph 1025.8mb 72f 71f
5:20pm  -   -   -  16 22 mph 1025.8mb 73f 71f
5:10pm  -   -   -  16 22 mph 1025.8mb 73f 71f
5:00pm  -   -   -  16 20 mph 1025.8mb 73f 71f
4:50pm 6ft 10s 6s 16 20 mph 1025.8mb 73f 71f
4:40pm  -   -   -  16 20 mph 1025.7mb 73f 71f
4:30pm  -   -   -  18 20 mph 1025.7mb 73f 71f
4:20pm  -   -   -  18 20 mph 1025.7mb 73f 71f
4:10pm  -   -   -  16 20 mph 1025.5mb 73f 71f
4:00pm  -   -   -  18 20 mph 1025.5mb 73f 71f
3:50pm 5.5ft 9s 6s 18 20 mph 1025.5mb 73f 71f
3:40pm  -   -   -  16 20 mph 1025.7mb 73f 71f
3:30pm  -   -   -  16 20 mph 1025.7mb 73f 71f
3:20pm  -   -   -  16 20 mph 1025.8mb - 71f
3:10pm  -   -   -  16 20 mph 1025.8mb 73f 71f
3:00pm  -   -   -  16 20 mph 1025.8mb 73f 71f
2:50pm 5.5ft 9s 6s 16 20 mph 1025.8mb 73f 70f
2:40pm 5.5ft  -  6s 16 20 mph 1025.8mb 73f 71f
2:30pm  -   -   -  16 20 mph 1025.8mb 73f 71f
2:20pm  -   -   -  16 20 mph 1025.8mb 73f 71f
2:10pm  -   -   -  16 20 mph 1026mb 73f 70f
2:00pm  -   -   -  16 20 mph 1026mb 73f 70f
1:50pm 6ft 9s 6s 16 20 mph 1026mb 73f 70f
1:40pm 6ft  -  6s 16 20 mph 1026mb 72f 70f
1:30pm  -   -   -  18 20 mph 1026mb 73f 71f
1:20pm  -   -   -  16 20 mph 1026mb 72f 71f
1:10pm  -   -   -  16 20 mph 1026.3mb 72f 71f
1:00pm  -   -   -  16 22 mph 1026.3mb 72f 71f
12:50pm 6ft 10s 6s 16 18 mph 1026.3mb 72f 71f
12:40pm  -   -   -  13 18 mph 1026.5mb 72f 71f
12:30pm  -   -   -  16 18 mph 1026.7mb 72f 71f
12:20pm  -   -   -  16 20 mph 1026.7mb 72f 71f
12:10pm  -   -   -  16 20 mph 1026.8mb - 71f
12:00pm  -   -   -  16 20 mph 1027mb 72f 71f
11:50am 6ft 10s 6s 16 20 mph 1027mb 72f 71f
11:40am  -   -   -  16 20 mph 1027mb 72f 71f
11:30am  -   -   -  13 18 mph 1027.2mb 72f 70f
11:20am  -   -   -  18 22 mph 1027.3mb 72f 70f
11:10am  -   -   -  20 27 mph 1027.3mb 72f 71f
11:00am  -   -   -  13 16 mph 1027.5mb 72f 71f
10:50am 6.5ft 10s 6s 13 18 mph 1027.3mb 72f 71f
10:40am  -   -   -  16 18 mph 1027.3mb 72f 70f
10:30am  -   -   -  13 18 mph 1027.5mb 72f 70f
10:20am  -   -   -  13 18 mph 1027.5mb 72f 70f
10:10am  -   -   -  16 20 mph 1027.5mb 72f 69f
10:00am  -   -   -  16 20 mph 1027.5mb 72f 70f
9:50am 6ft 7s 6s 13 18 mph 1027.5mb 72f 69f
9:40am 6ft  -  6s 16 18 mph 1027.5mb 72f 69f
9:30am  -   -   -  16 20 mph 1027.3mb 72f 69f
9:20am  -   -   -  16 20 mph 1027.2mb 72f 69f
9:10am  -   -   -  16 18 mph 1027mb 72f 69f
9:00am  -   -   -  16 18 mph 1027mb 72f 69f
8:50am 6.5ft 9s 6s 16 20 mph 1027mb 72f 69f
8:40am 6.5ft  -  6s 16 20 mph 1027mb 72f 69f
8:30am  -   -   -  20 25 mph 1026.8mb 72f 69f
8:20am  -   -   -  20 25 mph 1026.5mb 72f 69f
8:10am  -   -   -  18 20 mph 1026.5mb 72f 69f
8:00am  -   -   -  18 20 mph 1026.3mb 72f 69f
7:50am 6ft 11s 6s 18 22 mph 1026.2mb 72f 69f
7:40am 6ft  -  6s 18 20 mph 1026mb 72f 69f
7:30am  -   -   -  18 22 mph 1026mb 72f 69f
7:20am  -   -   -  18 22 mph 1026mb 72f 69f
7:10am  -   -   -  16 18 mph 1026mb 72f 69f
7:00am  -   -   -  16 20 mph 1026mb 72f 69f
6:50am 7ft 10s 7s 16 18 mph 1025.8mb 72f 70f
6:40am 7ft  -  7s 13 18 mph 1026mb 72f 69f
6:30am  -   -   -  13 16 mph 1025.7mb 72f 70f
6:20am  -   -   -  11 16 mph 1025.7mb 72f 70f
6:10am  -   -   -  13 16 mph 1025.5mb 72f 70f
6:00am  -   -   -  13 18 mph 1025.5mb 72f 69f
5:50am 6ft 9s 6s 13 16 mph 1025.3mb 72f 69f
5:40am 6ft  -  6s 13 16 mph 1025.3mb 72f 70f
5:30am  -   -   -  13 18 mph 1025.3mb 72f 70f
5:20am  -   -   -  13 16 mph 1025.3mb 72f 70f
5:10am  -   -   -  13 16 mph 1025.5mb 72f 70f
5:00am  -   -   -  13 18 mph 1025.3mb 72f 70f
4:50am 5.5ft 10s 6s 13 18 mph 1025.5mb 72f 70f
4:40am 5.5ft  -  6s 13 18 mph 1025.5mb 72f 70f
4:30am  -   -   -  13 16 mph 1025.5mb 72f 70f
4:20am  -   -   -  13 16 mph 1025.7mb 72f 70f
4:10am  -   -   -  13 18 mph 1025.5mb 72f 70f
4:00am  -   -   -  13 16 mph 1025.7mb 72f 70f
3:50am 7ft 10s 7s 11 16 mph 1025.8mb 72f 70f
3:40am  -   -   -  13 16 mph 1025.8mb 72f 70f
3:30am  -   -   -  13 16 mph 1025.8mb 72f 70f
3:20am  -   -   -  13 16 mph 1025.8mb 72f 70f
3:10am  -   -   -  13 18 mph 1026mb 72f 70f
3:00am  -   -   -  13 16 mph 1025.8mb 72f 70f
2:50am 6ft 10s 6s 13 18 mph 1025.8mb 72f 70f
2:40am 6ft  -  6s 13 16 mph 1025.7mb 72f 70f
2:30am  -   -   -  13 18 mph 1025.8mb 72f 70f
2:20am  -   -   -  13 18 mph 1025.8mb 72f 70f
2:10am  -   -   -  13 18 mph 1026mb 72f 70f
2:00am  -   -   -  13 16 mph 1026mb 72f 70f
1:50am 6ft 10s 6s 13 18 mph 1026mb 72f 70f
1:40am 6ft  -  6s 11 16 mph 1026mb 72f 70f
1:30am  -   -   -  11 16 mph 1026.2mb 72f 70f
1:20am  -   -   -  11 16 mph 1026.3mb 72f 70f
1:10am  -   -   -  11 16 mph 1026.3mb 72f 71f
1:00am  -   -   -  13 16 mph 1026.3mb 72f 71f
12:50am 6.5ft 10s 6s 13 18 mph 1026mb 72f 70f
12:40am  -   -   -  11 16 mph 1026mb 72f 71f
12:30am  -   -   -  13 18 mph 1026mb 72f 70f
12:20am  -   -   -  16 18 mph 1025.7mb 72f 70f
12:10am  -   -   -  16 20 mph 1025.8mb 72f 70f
12:00am  -   -   -  18 22 mph 1025.5mb 72f 70f
Mon 02/20 11:50pm 6ft 11s 6s 18 25 mph 1025.5mb 72f 70f
11:40pm  -   -   -  18 25 mph 1025.3mb 72f 70f
11:30pm  -   -   -  18 22 mph 1025.8mb - 70f
11:20pm  -   -   -  18 25 mph 1025.8mb 72f 70f
11:10pm  -   -   -  18 25 mph 1025.8mb - 70f
11:00pm  -   -   -  18 25 mph 1025.8mb 72f 70f
10:50pm 7ft 10s 6s 18 22 mph 1026.2mb 72f 71f
10:40pm 7ft  -  6s 20 25 mph 1026.2mb 72f 71f
10:30pm  -   -   -  20 25 mph 1025.8mb 72f 71f
10:20pm  -   -   -  18 22 mph 1026.2mb 72f 71f
10:10pm  -   -   -  18 22 mph 1026mb 72f 71f
10:00pm  -   -   -  16 20 mph 1026.3mb 72f 71f
9:50pm 7ft 11s 6s 13 20 mph 1026.3mb 72f 71f
9:40pm 7ft  -  6s 13 20 mph 1026.3mb 72f 71f
9:30pm  -   -   -  16 20 mph 1026mb 72f 71f
9:20pm  -   -   -  16 20 mph 1026mb 72f 70f
9:10pm  -   -   -  16 20 mph 1025.8mb 72f 71f
9:00pm  -   -   -  13 18 mph 1025.8mb 72f 70f
8:50pm 8ft 11s 7s 13 18 mph 1025.7mb 72f 70f
8:40pm 8ft  -  7s 16 20 mph 1025.7mb 72f 70f
8:30pm  -   -   -  16 20 mph 1025.7mb 72f 70f
8:20pm  -   -   -  16 18 mph 1025.5mb 72f 70f
8:10pm  -   -   -  13 18 mph 1025.5mb 72f 70f
8:00pm  -   -   -  13 16 mph 1025.5mb 72f 70f
7:50pm 7ft 11s 6s 13 18 mph 1025.3mb 72f 70f
7:40pm 7ft  -  6s 13 18 mph 1025mb 72f 70f
7:30pm  -   -   -  13 18 mph 1025mb 72f 70f
7:20pm  -   -   -  13 16 mph 1025mb 72f 70f
7:10pm  -   -   -  13 18 mph 1025mb 73f 70f
7:00pm  -   -   -  13 18 mph 1024.8mb 73f 70f
6:50pm 7.5ft 11s 7s 13 20 mph 1024.8mb 73f 70f
6:40pm 7.5ft  -  7s 13 18 mph 1024.5mb 73f 70f
6:30pm  -   -   -  16 22 mph 1024.3mb 73f 70f
6:20pm  -   -   -  13 18 mph 1024.5mb 73f 70f
6:10pm  -   -   -  16 18 mph 1024.5mb 73f 70f
6:00pm  -   -   -  16 18 mph 1024.3mb 73f 71f
5:50pm 7.5ft 11s 7s 16 20 mph 1024.2mb 73f 71f
5:40pm 7.5ft  -  7s 13 18 mph 1024mb 73f 71f
5:30pm  -   -   -  13 20 mph 1024mb 73f 71f
5:20pm  -   -   -  13 18 mph 1024mb 73f 71f
5:10pm  -   -   -  13 18 mph 1024mb 73f 71f
5:00pm  -   -   -  13 18 mph 1024mb 73f 71f
4:50pm 7.5ft 11s 7s 16 20 mph 1024mb 73f 71f
4:40pm 7.5ft  -  7s 16 20 mph 1023.9mb 73f 71f
4:30pm  -   -   -  16 18 mph 1023.8mb 73f 71f
4:20pm  -   -   -  13 20 mph 1023.6mb 73f 71f
4:10pm  -   -   -  16 18 mph 1023.5mb 73f 70f
4:00pm  -   -   -  16 20 mph 1023.5mb 73f 70f
3:50pm 7.5ft 11s 7s 16 20 mph 1023.5mb 73f 70f
3:40pm 7.5ft  -  7s 16 20 mph 1023.5mb 73f 70f
3:30pm  -   -   -  16 20 mph 1023.5mb 73f 70f
3:20pm  -   -   -  16 20 mph 1023.5mb 73f 70f
3:10pm  -   -   -  18 22 mph 1023.5mb 73f 70f
3:00pm  -   -   -  18 22 mph 1023.5mb 73f 70f
2:50pm 8ft 11s 7s 18 22 mph 1023.6mb 73f 70f
2:40pm  -   -   -  18 22 mph 1023.8mb 73f 70f
2:30pm  -   -   -  16 20 mph 1023.9mb 73f 70f
2:20pm  -   -   -  16 22 mph 1024mb 73f 70f
2:10pm  -   -   -  18 22 mph 1024mb 73f 70f
2:00pm  -   -   -  16 22 mph 1024.3mb 73f 70f
1:50pm 9ft 11s 7s 16 20 mph 1024.5mb 73f 70f
1:40pm 9ft  -  7s 16 20 mph 1024.7mb 73f 70f
1:30pm  -   -   -  16 22 mph 1024.8mb 73f 70f
1:20pm  -   -   -  16 20 mph 1024.8mb 73f 70f
1:10pm  -   -   -  16 20 mph 1025.2mb 73f 70f
1:00pm  -   -   -  16 22 mph 1025.2mb 73f 70f
12:50pm 8ft 12s 7s 16 20 mph 1025.3mb 73f 70f
12:40pm 8ft  -  7s 18 22 mph 1025.3mb 73f 70f
12:30pm  -   -   -  16 20 mph 1025.3mb 73f 70f
12:20pm  -   -   -  16 22 mph 1025.5mb 73f 70f
12:10pm  -   -   -  16 20 mph 1025.7mb 73f 69f
12:00pm  -   -   -  16 20 mph 1025.8mb 73f 70f
11:50am 9ft 12s 7s 16 20 mph 1026mb 73f 70f
11:40am 9ft  -  7s 16 20 mph 1026mb 73f 69f
11:30am  -   -   -  18 22 mph 1026mb 73f 69f
11:20am  -   -   -  16 20 mph 1026mb 73f 69f
11:10am  -   -   -  18 25 mph 1026mb 73f 70f
11:00am  -   -   -  18 27 mph 1026mb 73f 70f
10:50am 9ft 12s 7s 20 25 mph 1026mb 73f 70f
10:40am 9ft  -  7s 18 25 mph 1026mb 73f 70f
10:30am  -   -   -  20 25 mph 1026mb 73f 70f
10:20am  -   -   -  20 25 mph 1026mb 73f 69f
10:10am  -   -   -  20 25 mph 1025.8mb 73f 69f
10:00am  -   -   -  18 27 mph 1025.8mb 73f 69f
9:50am 10ft 12s 8s 18 22 mph 1025.8mb 73f 69f
9:40am 10ft  -  8s 16 20 mph 1025.8mb 73f 69f
9:30am  -   -   -  16 20 mph 1025.7mb 73f 69f
9:20am  -   -   -  18 22 mph 1025.5mb 73f 69f
9:10am  -   -   -  20 25 mph 1025.3mb 73f 69f
9:00am  -   -   -  18 25 mph 1025.3mb 73f 69f
8:50am 9.5ft 12s 7s 20 27 mph 1025.2mb 73f 69f
8:40am 9.5ft  -  7s 18 25 mph 1025mb 73f 69f
8:30am  -   -   -  20 25 mph 1025mb 73f 69f
8:20am  -   -   -  20 25 mph 1025mb 73f 69f
8:10am  -   -   -  18 27 mph 1024.8mb 73f 69f
8:00am  -   -   -  18 25 mph 1024.8mb 73f 69f
7:50am 10ft 12s 8s 18 25 mph 1024.8mb 73f 69f
7:40am  -   -   -  20 25 mph 1024.8mb 73f 69f
7:30am  -   -   -  20 25 mph 1024.8mb 73f 69f
7:20am  -   -   -  20 27 mph 1024.8mb 73f 69f
7:10am  -   -   -  20 27 mph 1024.7mb 73f 69f
7:00am  -   -   -  20 25 mph 1024.8mb 73f 69f
6:50am 11ft 11s 8s 20 25 mph 1024.5mb 73f 69f
6:40am 11ft  -  8s 22 27 mph 1024.5mb 73f 69f
6:30am  -   -   -  22 27 mph 1024.3mb 73f 69f
6:20am  -   -   -  20 25 mph 1024.3mb 73f 69f
6:10am  -   -   -  20 29 mph 1024.3mb 73f 69f
6:00am  -   -   -  20 25 mph 1024.3mb 73f 68f
5:50am 11ft 12s 8s 20 25 mph 1024.2mb 73f 68f
5:40am 11ft  -  8s 18 25 mph 1024.3mb 73f 68f
5:30am  -   -   -  20 25 mph 1024.2mb 73f 68f
5:20am  -   -   -  22 27 mph 1023.9mb 73f 69f
5:10am  -   -   -  20 29 mph 1023.8mb 73f 69f
5:00am  -   -   -  20 25 mph 1023.9mb 73f 69f
4:50am 9.5ft 11s 8s 20 25 mph 1024mb 73f 68f
4:40am 9.5ft  -  8s 18 22 mph 1024mb 73f 68f
4:30am  -   -   -  20 22 mph 1024mb 73f 68f
4:20am  -   -   -  20 25 mph 1024mb 73f 68f
4:10am  -   -   -  18 25 mph 1024mb 73f 68f
4:00am  -   -   -  18 25 mph 1024mb 73f 68f
3:50am 11ft 11s 8s 18 22 mph 1023.9mb 73f 68f
3:40am 11ft  -  8s 18 25 mph 1024mb 73f 68f
3:30am  -   -   -  20 25 mph 1024mb 73f 68f
3:20am  -   -   -  18 25 mph 1024.2mb 73f 68f
3:10am  -   -   -  18 25 mph 1024.3mb 73f 68f
3:00am  -   -   -  20 25 mph 1025.2mb - 68f
2:50am 12.5ft 12s 8s 18 22 mph 1024.3mb 73f 68f
2:40am 12.5ft  -  8s 18 22 mph 1024.5mb 73f 68f
2:30am  -   -   -  16 22 mph 1024.8mb 73f 68f
2:20am  -   -   -  20 25 mph 1024.8mb 73f 68f
2:10am  -   -   -  18 22 mph 1025mb 73f 68f
2:00am  -   -   -  18 25 mph 1025.2mb 73f 68f
1:50am 10.5ft 12s 8s 16 22 mph 1025.2mb 73f 68f
1:40am 10.5ft  -  8s 18 25 mph 1025.5mb 73f 68f
1:30am  -   -   -  18 22 mph 1025.5mb 73f 68f
1:20am  -   -   -  18 22 mph 1025.5mb 73f 68f
1:10am  -   -   -  18 22 mph 1025.5mb 73f 68f
1:00am  -   -   -  18 27 mph 1025.5mb 73f 68f
12:50am 14ft 12s 9s 20 27 mph 1025.5mb 73f 68f
12:40am 14ft  -  9s 20 27 mph 1025.5mb 73f 68f
12:30am  -   -   -  20 27 mph 1025.5mb 73f 68f
12:20am  -   -   -  18 25 mph 1025.5mb 73f 68f
12:10am  -   -   -  18 22 mph 1025.8mb 73f 68f
12:00am  -   -   -  18 25 mph 1025.8mb 73f 68f
Sun 02/19 11:50pm 14ft 12s 9s 20 27 mph 1025.8mb 73f 67f
11:40pm 14ft  -  9s 18 25 mph 1026mb 73f 67f
11:30pm  -   -   -  20 25 mph 1026mb 73f 67f
11:20pm  -   -   -  18 25 mph 1026mb 73f 67f
11:10pm  -   -   -  18 27 mph 1026.3mb 73f 67f
11:00pm  -   -   -  20 29 mph 1026.3mb 73f 67f
10:50pm 12ft 13s 8s 20 29 mph 1026.3mb 73f 67f
10:40pm 12ft  -  8s 20 27 mph 1026.5mb 73f 67f
10:30pm  -   -   -  20 25 mph 1026.5mb 73f 67f
10:20pm  -   -   -  20 27 mph 1026.3mb 73f 67f
10:10pm  -   -   -  22 29 mph 1026.5mb 73f 67f
10:00pm  -   -   -  22 29 mph 1026.3mb 73f 67f
9:50pm 15ft 12s 9s 20 27 mph 1026.3mb 73f 67f
9:40pm 15ft  -  9s 22 27 mph 1026.3mb 73f 67f
9:30pm  -   -   -  20 27 mph 1026.3mb 73f 67f
9:20pm  -   -   -  22 27 mph 1026.2mb 73f 67f
9:10pm  -   -   -  20 27 mph 1026mb 73f 67f
9:00pm  -   -   -  20 27 mph 1026.2mb 73f 67f
8:50pm 13ft 12s 8s 20 25 mph 1026mb 73f 67f
8:40pm 13ft  -  8s 22 27 mph 1026.5mb 73f 67f
8:30pm  -   -   -  20 27 mph 1026mb 73f 67f
8:20pm  -   -   -  20 27 mph 1025.7mb 73f 67f
8:10pm  -   -   -  22 27 mph 1025.5mb 73f 67f
8:00pm  -   -   -  20 27 mph 1025.5mb 73f 67f
7:50pm 13ft 13s 8s 22 27 mph 1025.3mb 73f 67f
7:40pm 13ft  -  8s 22 29 mph 1025.3mb 73f 67f
7:30pm  -   -   -  20 25 mph 1025.3mb 73f 67f
7:20pm  -   -   -  20 25 mph 1025.3mb 73f 67f
7:10pm  -   -   -  20 27 mph 1025.2mb 73f 67f
7:00pm  -   -   -  20 27 mph 1025mb 73f 67f
6:50pm 13ft 13s 9s 20 27 mph 1025.2mb 73f 67f
6:40pm 13ft  -  9s 20 25 mph 1025.2mb 73f 67f
6:30pm  -   -   -  18 27 mph 1025.2mb 73f 67f
6:20pm  -   -   -  18 25 mph 1025.2mb 73f 67f
6:10pm  -   -   -  18 25 mph 1025.2mb 73f 67f
6:00pm  -   -   -  20 27 mph 1025.2mb 73f 67f
5:50pm 13.5ft 12s 9s 20 25 mph 1025mb 73f 67f
5:40pm 13.5ft  -  9s 20 27 mph 1025mb 73f 67f
5:30pm  -   -   -  22 27 mph 1024.8mb 73f 67f
5:20pm  -   -   -  20 27 mph 1024.7mb 73f 67f
5:10pm  -   -   -  20 25 mph 1024.5mb 73f 67f
5:00pm  -   -   -  20 27 mph 1024.5mb 73f 67f
4:50pm 12ft 13s 8s 20 25 mph 1024.3mb 73f 67f
4:40pm 12ft  -  8s 20 25 mph 1024.3mb 73f 67f
4:30pm  -   -   -  18 22 mph 1024.3mb 73f 67f
4:20pm  -   -   -  18 25 mph 1024.3mb 73f 67f
4:10pm  -   -   -  20 25 mph 1024.3mb 73f 67f
4:00pm  -   -   -  18 27 mph 1024mb 73f 67f
3:50pm 10.5ft 13s 7s 20 25 mph 1024mb 73f 67f
3:40pm 10.5ft  -  7s 20 27 mph 1024mb 73f 67f
3:30pm  -   -   -  22 27 mph 1024mb 73f 67f
3:20pm  -   -   -  20 27 mph 1023.9mb - 67f
3:10pm  -   -   -  22 27 mph 1023.9mb 73f 67f
3:00pm  -   -   -  22 27 mph 1023.8mb 73f 67f
2:50pm 11.5ft 12s 8s 22 29 mph 1023.8mb 73f 67f
2:40pm 11.5ft  -  8s 22 27 mph 1023.9mb 73f 67f
2:30pm  -   -   -  22 31 mph 1024mb 73f 67f
2:20pm  -   -   -  20 25 mph 1024mb 73f 67f
2:10pm  -   -   -  20 27 mph 1024.2mb 73f 67f
2:00pm  -   -   -  20 25 mph 1024.3mb 73f 67f
1:50pm 12.5ft 12s 9s 18 25 mph 1024.5mb 73f 67f
1:40pm  -   -   -  20 25 mph 1024.7mb 73f 67f
1:30pm  -   -   -  20 27 mph 1024.8mb 73f 67f
1:20pm  -   -   -  20 27 mph 1025mb 73f 67f
1:10pm  -   -   -  20 27 mph 1025.3mb 73f 67f
1:00pm  -   -   -  20 27 mph 1025.3mb 73f 67f
12:50pm 12ft 12s 8s 20 25 mph 1025.5mb 73f 67f
12:40pm 12ft  -  8s 20 27 mph 1025.7mb 73f 67f
12:30pm  -   -   -  20 27 mph 1025.7mb 73f 67f
12:20pm  -   -   -  20 27 mph 1026mb 73f 67f
12:10pm  -   -   -  20 27 mph 1026mb 73f 67f
12:00pm  -   -   -  20 25 mph 1026.2mb 73f 66f
11:50am 12ft 13s 7s 20 27 mph 1026.3mb 73f 66f
11:40am 12ft  -  7s 20 29 mph 1026.3mb 73f 66f
11:30am  -   -   -  22 27 mph 1026.2mb 73f 66f
11:20am  -   -   -  22 29 mph 1026.2mb 73f 66f
11:10am  -   -   -  22 29 mph 1026.2mb 73f 67f
11:00am  -   -   -  22 27 mph 1026.2mb 73f 66f
10:50am 13ft 12s 8s 22 29 mph 1026.2mb 73f 67f
10:40am 13ft  -  8s 22 29 mph 1026mb 73f 67f
10:30am  -   -   -  22 29 mph 1026mb 73f 67f
10:20am  -   -   -  22 31 mph 1026mb 73f 67f
10:10am  -   -   -  25 31 mph 1025.8mb 73f 67f
10:00am  -   -   -  25 29 mph 1025.7mb 73f 67f
9:50am 11.5ft 13s 8s 25 29 mph 1025.5mb 73f 67f
9:40am 11.5ft  -  8s 22 29 mph 1025.5mb - 67f
9:30am  -   -   -  22 34 mph 1025.3mb 73f 67f
9:20am  -   -   -  22 29 mph 1025.2mb 73f 67f
9:10am  -   -   -  22 29 mph 1025mb 73f 67f
9:00am  -   -   -  22 29 mph 1025mb 73f 67f
8:50am 13.5ft 13s 8s 22 29 mph 1025mb 73f 66f
8:40am 13.5ft  -  8s 22 29 mph 1024.8mb 73f 66f
8:30am  -   -   -  25 36 mph 1024.8mb 73f 66f
8:20am  -   -   -  25 31 mph 1024.8mb 73f 66f
8:10am  -   -   -  22 29 mph 1024.7mb 73f 66f
8:00am  -   -   -  22 29 mph 1024.7mb 73f 67f
7:50am 13.5ft 12s 8s 22 29 mph 1024.7mb 73f 67f
7:40am 13.5ft  -  8s 22 27 mph 1024.3mb 73f 67f
7:30am  -   -   -  22 27 mph 1024.3mb 73f 67f
7:20am  -   -   -  22 29 mph 1024.5mb 73f 67f
7:10am  -   -   -  22 29 mph 1024.2mb 73f 66f
7:00am  -   -   -  25 31 mph 1024mb 73f 66f
6:50am 14ft 12s 8s 22 31 mph 1024mb 73f 66f
6:40am 14ft  -  8s 22 31 mph 1024mb 73f 66f
6:30am  -   -   -  22 29 mph 1024.2mb 73f 66f
6:20am  -   -   -  22 29 mph 1024mb 73f 66f
6:10am  -   -   -  22 29 mph 1024mb 73f 66f
6:00am  -   -   -  25 31 mph 1023.9mb 73f 66f
5:50am 13ft 13s 8s 22 27 mph 1023.9mb 73f 66f
5:40am 13ft  -  8s 22 29 mph 1023.8mb 73f 66f
5:30am  -   -   -  22 27 mph 1023.8mb 73f 66f
5:20am  -   -   -  22 29 mph 1023.8mb 73f 66f
5:10am  -   -   -  22 27 mph 1023.5mb 73f 66f
5:00am  -   -   -  22 29 mph 1023.5mb 73f 66f
4:50am 13ft 12s 8s 25 29 mph 1023.4mb 73f 66f
4:40am 13ft  -  8s 22 29 mph 1023.3mb 73f 66f
4:30am  -   -   -  25 29 mph 1023.4mb 73f 66f
4:20am  -   -   -  22 31 mph 1023mb 73f 66f
4:10am  -   -   -  22 29 mph 1023.1mb 73f 66f
4:00am  -   -   -  25 29 mph 1023mb 73f 66f
3:50am 11ft 12s 7s 22 29 mph 1023mb 73f 66f
3:40am 11ft  -  7s 22 29 mph 1023.3mb 73f 66f
3:30am  -   -   -  22 27 mph 1023.1mb 73f 66f
3:20am  -   -   -  22 29 mph 1023.3mb 73f 66f
3:10am  -   -   -  22 29 mph 1023.4mb 73f 66f
3:00am  -   -   -  25 29 mph 1023.5mb 73f 66f
2:50am 11.5ft 11s 8s 25 31 mph 1023.5mb 73f 66f
2:40am 11.5ft  -  8s 20 27 mph 1023.4mb 73f 66f
2:30am  -   -   -  20 27 mph 1023.5mb 73f 66f
2:20am  -   -   -  22 29 mph 1023.5mb 73f 66f
2:10am  -   -   -  20 29 mph 1023.5mb 73f 66f
2:00am  -   -   -  20 27 mph 1023.8mb 73f 66f
1:50am 11ft 10s 7s 22 27 mph 1024mb 73f 66f
1:40am 11ft  -  7s 22 29 mph 1024mb 73f 66f
1:30am  -   -   -  22 29 mph 1024mb 73f 66f
1:20am  -   -   -  22 27 mph 1023.9mb 73f 66f
1:10am  -   -   -  22 29 mph 1023.9mb 73f 66f
1:00am  -   -   -  20 27 mph 1024mb 73f 67f
12:50am 11ft 11s 7s 20 27 mph 1024mb 73f 67f
12:40am 11ft  -  7s 20 27 mph 1024.3mb 73f 67f
12:30am  -   -   -  22 29 mph 1024mb 73f 67f
12:20am  -   -   -  22 29 mph 1024mb 73f 67f
12:10am  -   -   -  22 29 mph 1024.2mb 73f 67f
12:00am  -   -   -  20 29 mph 1024mb 73f 67f
Sat 02/18 11:50pm 11.5ft 11s 7s 22 27 mph 1024mb 73f 67f
11:40pm 11.5ft  -  7s 22 29 mph 1024mb 73f 67f
11:30pm  -   -   -  20 29 mph 1024mb 73f 67f
11:20pm  -   -   -  18 25 mph 1023.8mb 73f 67f
11:10pm  -   -   -  20 27 mph 1024mb 73f 67f
11:00pm  -   -   -  20 25 mph 1023.9mb 73f 67f
10:50pm 11ft 10s 7s 22 27 mph 1023.8mb 73f 67f
10:40pm 11ft  -  7s 20 27 mph 1023.6mb 73f 67f
10:30pm  -   -   -  22 27 mph 1023.5mb 73f 67f
10:20pm  -   -   -  22 29 mph 1023.6mb 73f 67f
10:10pm  -   -   -  22 27 mph 1023.5mb 73f 68f
10:00pm  -   -   -  22 29 mph 1023.4mb 73f 68f
9:50pm 10ft 10s 7s 20 29 mph 1023.4mb 73f 68f
9:40pm 10ft  -  7s 22 29 mph 1023.4mb 73f 68f
9:30pm  -   -   -  22 27 mph 1023.4mb 73f 68f
9:20pm  -   -   -  22 29 mph 1023.4mb 73f 68f
9:10pm  -   -   -  22 27 mph 1023.3mb 73f 68f
9:00pm  -   -   -  22 29 mph 1023.3mb 73f 68f
8:50pm 9ft 9s 7s 22 27 mph 1023.1mb 73f 68f
8:40pm 9ft  -  7s 22 29 mph 1023mb - 68f
8:30pm  -   -   -  22 29 mph 1022.8mb 73f 68f
8:20pm  -   -   -  22 29 mph 1022.8mb 73f 68f
8:10pm  -   -   -  22 27 mph 1022.4mb 73f 68f
8:00pm  -   -   -  22 27 mph 1022.5mb 73f 68f
7:50pm 9.5ft 9s 7s 22 27 mph 1022.4mb 73f 68f
7:40pm 9.5ft  -  7s 22 29 mph 1022.4mb 73f 68f
7:30pm  -   -   -  22 29 mph 1022.1mb 73f 68f
7:20pm  -   -   -  22 27 mph 1022.1mb 73f 68f
7:10pm  -   -   -  22 27 mph 1022mb 73f 68f
7:00pm  -   -   -  22 29 mph 1022mb 73f 68f
6:50pm 10ft 8s 7s 22 29 mph 1021.9mb 73f 69f
6:40pm  -   -   -  22 31 mph 1021.8mb 73f 69f
6:30pm  -   -   -  22 29 mph 1021.8mb 73f 69f
6:20pm  -   -   -  22 29 mph 1021.8mb 73f 69f
6:10pm  -   -   -  22 27 mph 1021.6mb 73f 69f
6:00pm  -   -   -  20 27 mph 1021.6mb 73f 69f
5:50pm 9ft 8s 6s 20 27 mph 1021.5mb 73f 69f
5:40pm 9ft  -  6s 20 27 mph 1021.3mb 73f 69f
5:30pm  -   -   -  22 27 mph 1021.3mb 73f 69f
5:20pm  -   -   -  22 29 mph 1021.3mb 73f 69f
5:10pm  -   -   -  22 29 mph 1021mb 73f 69f
5:00pm  -   -   -  22 29 mph 1021mb 73f 69f
4:50pm 9ft 8s 6s 25 31 mph 1021mb 73f 69f
4:40pm 9ft  -  6s 22 29 mph 1020.9mb 73f 69f
4:30pm  -   -   -  22 29 mph 1020.8mb 73f 69f
4:20pm  -   -   -  22 29 mph 1020.8mb 73f 69f
4:10pm  -   -   -  22 29 mph 1020.6mb 73f 69f
4:00pm  -   -   -  22 29 mph 1020.5mb 73f 69f
3:50pm 9ft 8s 6s 22 29 mph 1020.5mb 73f 69f
3:40pm  -   -   -  22 29 mph 1020.4mb 73f 69f
3:30pm  -   -   -  22 29 mph 1020.5mb 73f 69f
3:20pm  -   -   -  22 29 mph 1020.4mb 73f 69f
3:10pm  -   -   -  22 29 mph 1020.1mb 73f 69f
3:00pm  -   -   -  22 29 mph 1020.1mb 73f 69f
2:50pm 8ft 7s 6s 22 29 mph 1020mb 73f 69f
2:40pm  -   -   -  22 29 mph 1020.1mb 73f 69f
2:30pm  -   -   -  22 29 mph 1020.1mb 73f 69f
2:20pm  -   -   -  22 29 mph 1020.1mb 73f 69f
2:10pm  -   -   -  25 29 mph 1020.1mb 73f 69f
2:00pm  -   -   -  25 29 mph 1020.1mb - 69f
1:50pm 8.5ft 8s 6s 25 29 mph 1020.4mb - 69f
1:40pm 8.5ft  -  6s 25 29 mph 1020.3mb 73f 69f
1:30pm  -   -   -  25 29 mph 1020.4mb 73f 69f
1:20pm  -   -   -  25 29 mph 1020.5mb 73f 69f
1:10pm  -   -   -  25 29 mph 1020.5mb 73f 69f
1:00pm  -   -   -  25 31 mph 1020.6mb 73f 70f
12:50pm 8ft 11s 6s 22 27 mph 1020.8mb 73f 70f
12:40pm 8ft  -  6s 22 27 mph 1021mb 73f 70f
12:30pm  -   -   -  25 29 mph 1021mb 73f 70f
12:20pm  -   -   -  22 27 mph 1021.3mb 73f 70f
12:10pm  -   -   -  22 29 mph 1021.3mb 73f 70f
12:00pm  -   -   -  25 29 mph 1021.4mb 73f 70f
11:50am 8.5ft 8s 6s 25 29 mph 1021.3mb 73f 70f
11:40am 8.5ft  -  6s 25 29 mph 1021.5mb 73f 70f